www.pogodaiklimat.ru

Погода и климат >> Архив погоды >> Бразилия >> Амапа >> Сантана


ПОГОДА в Сантане

  • Прогноз погоды в Сантане
  • Монитор погоды в Сантане

АРХИВ ПОГОДЫ в Сантане

Время (UTC), дата Ветер
(напр.,м/с)
 
Видим.   Явления Облачность Т
(С)
Тd
(С)
f
(%)
Тe
(С)
Тes
(С)
Комфортность P
(гПа)
Po
(гПа)
Тmin
(С)
Tmax
(С)
R
(мм)
R24
(мм)
S
(см)
18 12.04 0 н/о н/о +29.8 -7.1 9 1009.8 1008.7
19 12.04 0 н/о н/о +28.7 +13.0 38 1009.8 1008.7
20 12.04 0 н/о н/о +28.5 +20.8 63 1009.8 1008.7
21 12.04 0 н/о н/о +28.1 1010.3 1009.2
22 12.04 0 н/о н/о +28.0 1010.6 1009.5
23 12.04 0 н/о н/о +28.2 1011.4 1010.3
00 13.04 0 н/о н/о +27.7 1011.9 1010.8
01 13.04 0 н/о н/о +27.7 1012.5 1011.4
02 13.04 0 н/о н/о +27.8 1012.4 1011.3
03 13.04 0 н/о н/о +27.8 1012.1 1011.0
04 13.04 0 н/о н/о +27.3 1011.4 1010.3
05 13.04 0 н/о н/о +26.2 1010.7 1009.6
06 13.04 0 н/о н/о +26.3 1010.3 1009.2
07 13.04 0 н/о н/о +26.2 1010.3 1009.2
08 13.04 0 н/о н/о +25.9 1010.3 1009.2
09 13.04 0 н/о н/о +25.6 1010.7 1009.6
10 13.04 0 н/о н/о +28.0 1011.2 1010.1
11 13.04 0 н/о н/о +29.0 1011.7 1010.6
12 13.04 0 н/о н/о +30.0 1012.1 1011.0
13 13.04 0 н/о н/о +30.9 +26.9 79 1012.2 1011.1
14 13.04 0 н/о н/о +27.6 1012.3 1011.2
15 13.04 0 н/о н/о +26.5 1011.7 1010.6
16 13.04 0 н/о н/о +25.7 1010.7 1009.6
17 13.04 0 н/о н/о +26.5 1009.7 1008.6
18 13.04 0 н/о н/о +27.1 1009.1 1008.0
19 13.04 0 н/о н/о +26.1 1008.8 1007.7
20 13.04 0 н/о н/о +26.4 1009.2 1008.1
21 13.04 0 н/о н/о +26.1 1009.5 1008.4
22 13.04 0 н/о н/о +26.4 1010.3 1009.2
23 13.04 0 н/о н/о +26.4 1010.4 1009.3
00 14.04 0 н/о н/о +26.3 1011.4 1010.3
01 14.04 0 н/о н/о +26.2 1012.1 1011.0
02 14.04 0 н/о н/о +26.4 1011.7 1010.6
03 14.04 0 н/о н/о +26.5 1011.0 1009.9
04 14.04 0 н/о н/о +25.4 1010.3 1009.2
05 14.04 0 н/о н/о +25.7 1009.8 1008.7
06 14.04 0 н/о н/о +25.6 1009.6 1008.5
07 14.04 0 н/о н/о +25.7 1009.9 1008.8
08 14.04 0 н/о н/о +24.9 1010.1 1009.0
09 14.04 0 н/о н/о +23.3 1011.0 1009.9
10 14.04 0 н/о н/о +24.6 1012.1 1011.0
11 14.04 0 н/о н/о +24.6 1012.5 1011.4
12 14.04 0 н/о н/о +25.0 1012.5 1011.4
13 14.04 0 н/о н/о +26.2 1012.7 1011.6
14 14.04 0 н/о н/о +27.3 1012.6 1011.5
15 14.04 0 н/о н/о +27.6 1012.1 1011.0
16 14.04 0 н/о н/о +28.5 1010.8 1009.7
17 14.04 0 н/о н/о +29.4 1009.8 1008.7
18 14.04 0 н/о н/о +28.8 1009.4 1008.3
19 14.04 0 н/о н/о +28.0 1009.4 1008.3
20 14.04 0 н/о н/о +28.0 1009.8 1008.7
21 14.04 0 н/о н/о +27.2 1010.8 1009.7
22 14.04 0 н/о н/о +24.2 1012.0 1010.9
23 14.04 0 н/о н/о +24.6 1012.9 1011.8
00 15.04 0 н/о н/о +24.4 1013.4 1012.3
01 15.04 0 н/о н/о +24.4 1013.9 1012.8
02 15.04 0 н/о н/о +24.4 1013.5 1012.4
03 15.04 0 н/о н/о +24.3 1012.7 1011.6
04 15.04 0 н/о н/о +24.3 1012.2 1011.1
05 15.04 0 н/о н/о +25.0 1011.6 1010.5
10 15.04 штиль 0
{1}
н/о н/о +26.1 +22 +22 комфорт 1011.5 1010.4
11 15.04 СВ 1
{1}
н/о н/о +27.9 +23 +23 комфорт 1012.2 1011.1
12 15.04 ЮВ 1
{2}
н/о н/о +28.6 +24 +24 комфорт 1012.8 1011.7
13 15.04 ЮВ 1
{2}
н/о н/о +29.5 +24 +24 комфорт 1012.9 1011.8
14 15.04 ЮВ 1
{3}
н/о н/о +30.0 +25 +25 комфорт 1012.7 1011.6
15 15.04 В 1
{3}
н/о н/о +30.6 +26.7 80 +48 +48 опасность
перегрева
1012.0 1010.9
16 15.04 СВ 2
{3}
н/о н/о +30.2 +22.9 65 +40 +40 очень
душно
1011.2 1010.1
17 15.04 СВ 2
{4}
н/о н/о +30.2 +21.2 59 +38 +38 очень
душно
1010.2 1009.1
18 15.04 С 2
{4}
н/о н/о +30.0 +9.3 28 +30 +30 жарко 1009.0 1007.9
19 15.04 СВ 2
{4}
н/о н/о +29.0 +24.7 78 +41 +41 опасность
перегрева
1009.0 1007.9
20 15.04 СВ 2
{4}
н/о н/о +28.8 +12.6 37 +30 +30 жарко 1009.7 1008.6
21 15.04 СВ 2
{4}
н/о н/о +28.2 +26.6 91 +44 +44 опасность
перегрева
1010.5 1009.4
22 15.04 СВ 2
{3}
н/о н/о +28.1 +23 +23 комфорт 1011.3 1010.2
23 15.04 СВ 2
{4}
н/о н/о +28.2 +23 +23 комфорт 1011.8 1010.7
00 16.04 В 1
{4}
н/о н/о +27.0 +22 +22 комфорт 1012.5 1011.4
09 16.04 0 н/о н/о +24.9 1011.1 1010.0
10 16.04 штиль 0
{1}
н/о н/о +26.2 +22 +22 комфорт 1012.1 1011.0
11 16.04 В 1
{2}
н/о н/о +27.4 +23 +23 комфорт 1012.7 1011.6
12 16.04 В 1
{2}
н/о н/о +27.5 +23 +23 комфорт 1013.8 1012.7
13 16.04 В 1
{2}
н/о н/о +28.3 +23 +23 комфорт 1014.0 1012.9
14 16.04 В 1
{4}
н/о н/о +27.6 +23 +23 комфорт 1013.7 1012.6
15 16.04 В 1
{3}
н/о н/о +27.3 +23 +23 комфорт 1012.8 1011.7
16 16.04 СВ 2
{3}
н/о н/о +28.6 +24 +24 комфорт 1011.6 1010.5
17 16.04 В 2
{3}
н/о н/о +29.6 +25 +25 комфорт 1010.6 1009.5
18 16.04 В 1
{3}
н/о н/о +29.1 +24 +24 комфорт 1009.8 1008.7
19 16.04 В 1
{4}
н/о н/о +28.8 +24 +24 комфорт 1009.8 1008.7
20 16.04 СВ 1
{3}
н/о н/о +28.2 +23 +23 комфорт 1009.6 1008.5
21 16.04 СВ 1
{3}
н/о н/о +27.5 +23 +23 комфорт 1009.8 1008.7
11 17.04 В 1
{3}
н/о н/о +26.4 +22 +22 комфорт 1011.9 1010.8 0.4
12 17.04 В 2
{4}
н/о н/о +26.6 +22 +22 комфорт 1013.2 1012.1
13 17.04 0
{4}
н/о 1012.0
14 17.04 0
{3}
н/о 1011.7
15 17.04 0
{3}
н/о 1010.8
16 17.04 0
{3}
н/о 1010.2
17 17.04 0
{3}
н/о 1009.4
18 17.04 0
{2}
н/о 1008.2
19 17.04 0
{3}
н/о 1007.4
20 17.04 СВ 1
{3}
н/о н/о +27.4 +23 +23 комфорт 1009.0 1007.9
21 17.04 С 1
{3}
н/о н/о +26.9 +22 +22 комфорт 1009.3 1008.2
22 17.04 СВ 2
{3}
н/о н/о +27.1 +22 +22 комфорт 1010.0 1008.9
11 18.04 0
{3}
н/о 1010.3

 

Местоположение метеостанции Сантана (Амапа, Бразилия): широта -2.27 долгота -43.62 высота над уровнем моря 10 м.

В архиве по умолчанию представлена погода в Сантане за последнюю неделю. Архивные данные за месяц целиком и за предыдущие месяцы, начиная с января 2011 года, Вы можете получить, выбрав интересующий диапазон дат из раскрывающегося списка и нажав кнопку "Ввод!".


*Определитесь, кто Вы:
робот инопланетянин человек

Внимание! Время в таблицах - всемирное. Для получения местного времени необходимо прибавить поправку, которая равна -3 ч.

Смотрите также архив погоды в соседних городах и на ближайших метеорологических станциях:

Погода на Прегуике (Мараньян, Бразилия) (38 км)
Погода в Сан-Луисе (Мараньян, Бразилия) (73 км)
Погода в Сан-Луисе (Мараньян, Бразилия) (77 км)
Погода в Шападинье (Мараньян, Бразилия) (167 км)
Погода в Туриасу (Мараньян, Бразилия) (206 км)
Погода в Туриасу (Мараньян, Бразилия) (207 км)
Погода в Парнаибе (Пиауи, Бразилия) (223 км)
Погода в Парнаибе (Пиауи, Бразилия) (223 км)
Погода в Эсперантине (Пиауи, Бразилия) (235 км)
Погода в Бакабале (Мараньян, Бразилия) (255 км)

Пояснения к столбцам:

Ветер - указаны скорость ветра в м/с - средняя за 10 мин, порывы в срок и между сроками (в фигурных скобках) и направление, откуда дует ветер: С - северный, СВ - северо-восточный, В - восточный, ЮВ - юго-восточный, Ю - южный, ЮЗ - юго-западный, З - западный, СЗ - северо-западный.
Видимость - горизонтальная дальность видимости в метрах или километрах. При видимости от 1 до 10 км при отсутствии осадков обычно наблюдается дымка, при ухудшении видимости до 1 км и менее - туман. В сухую погоду видимость может ухудшаться дымом, пылью или мглою.
Явления - указаны атмосферные явления, наблюдавшиеся в срок или в последний час перед сроком; фигурными скобками обозначены явления, наблюдавшиеся между сроками (за 1-3 часа до срока); квадратными скобками обозначены град или гололедные отложения с указанием их диаметра в мм.
Облачность - указаны через наклонную черту общая и нижняя облачность в баллах и высота нижней границы облаков в метрах; квадратными скобками обозначены формы облаков: Ci - перистые, Cs - перисто-слоистые, Cc - перисто-кучевые, Ac - высококучевые, As - высокослоистые, Sc - слоисто-кучевые, Ns - слоисто-дождевые, Cu - кучевые, Cb - кучево-дождевые. Подробнее классификацию облаков см. в Атласе облаков (PDF).
T - Температура воздуха - температура, измеренная на высоте 2 м над землей.
Td - Температура точки росы - температура, при понижении до которой содержащийся в воздухе водяной пар достигнет насыщения.
f - Относительная влажность воздуха - влажноcть воздуха, измеренная на высоте 2 м над землей.
Te - Эффективная температура - температура, которую ощущает одетый по сезону человек в тени. Характеристика душности погоды. При расчете учитывается влияние влажности воздуха и скорости ветра на теплоощущения человека.
Tes - Эффективная температура на солнце - температура, которую ощущает человек, с поправкой на солнечный нагрев. Характеристика знойности погоды. Зависит от высоты солнца над горизонтом, облачности и скорости ветра. Ночью, в пасмурную погоду, а также при ветре 12 м/с и более поправка равна нулю.
P - Атмосферное давление - приведенное к уровню моря атмосферное давление.
Po - Атмосферное давление - измеренное на уровне метеостанции атмосферное давление.
Tmin - Минимальная температура - минимум температуры воздуха на высоте 2 м над землей.
Tmax - Максимальная температура - максимум температуры воздуха на высоте 2 м над землей.
R - Количество осадков - Количество выпавших осадков за период времени, мм. При наведении курсора мыши на число - период времени, за который выпало указанное количество осадков.
R24 - Количество осадков - Количество выпавших осадков за 24 часа, мм.
S - Снежный покров - Высота снежного покрова, см. При наведении курсора мыши на число - состояние снежного покрова и степень покрытия местности в баллах.